Weather History for Mobridge, SD

Change the Weather History Date:

Tuesday, December 11, 2012

  Actual Average Record
Temperature  
Mean Temperature 25 °F 19 °F  
Max Temperature 30 °F 30 °F 64 °F (1939)
Min Temperature 20 °F 8 °F -22 °F (1917)
Degree Days  
Heating Degree Days 40 46  
Month to date heating degree days 410 485  
Since 1 July heating degree days 2157 2251  
Cooling Degree Days 0 0  
Month to date cooling degree days 0 0  
Year to date cooling degree days 866 644  
Moisture  
Dew Point 21 °F    
Average Humidity 82    
Maximum Humidity 88    
Minimum Humidity 75    
Precipitation  
Precipitation 0.00 in 0.01 in 0.79 in (1965)
Month to date precipitation 0.46 0.09  
Year to date precipitation 13.63 17.52  
Snow  
Snow 0.00 in - - ()
Month to date snowfall 7.1  
Since 1 July snowfall 7.6  
Snow Depth 6.00 in    
Sea Level Pressure  
Sea Level Pressure 29.79 in    
Wind  
Wind Speed 9 mph (SW)    
Max Wind Speed 20 mph    
Max Gust Speed 24 mph    
Visibility 10 miles    
Events      
T = Trace of Precipitation, MM = Missing Value Source: NWS Daily Summary

Daily Weather History Graph

Daily Weather History Graph

Search for Another Location

Airport:

Trip Planner

Search our weather history database for the weather conditions in past years. The results will help you decide how hot, cold, wet, or windy it might be!

Date:

Astronomy

Dec. 11, 2012 Rise Set
Actual Time 8:12 AM CST 4:58 PM CST
Civil Twilight 7:38 AM CST 5:32 PM CST
Nautical Twilight 7:00 AM CST 6:09 PM CST
Astronomical Twilight 6:24 AM CST 6:45 PM CST
Moon 6:06 AM CST (12/11) 3:40 PM CST (12/11)
Length of Visible Light 9h 53m
Length of Day
8h 45m
Waning Crescent, 4% of the Moon is Illuminated
Dec 11
Waning Crescent
Dec 13
New
Dec 19
First Quarter
Dec 28
Full
Jan 4
Last Quarter

Hourly Weather History & Observations

Time (CST) Temp. Windchill Dew Point Humidity Pressure Visibility Wind Dir Wind Speed Gust Speed Precip Events Conditions
12:23 AM 21.2 °F 16.4 °F 17.6 °F 86% 29.75 in 10.0 mi WNW 3.5 mph - N/A   Overcast
12:52 AM 23.0 °F 14.7 °F 19.0 °F 85% 29.83 in 10.0 mi WNW 6.9 mph - N/A   Overcast
1:52 AM 26.1 °F 15.6 °F 21.0 °F 81% 29.81 in 10.0 mi WNW 11.5 mph - N/A   Overcast
2:52 AM 27.0 °F 15.6 °F 21.0 °F 78% 29.81 in 10.0 mi WNW 13.8 mph - N/A   Overcast
3:52 AM 28.0 °F 18.1 °F 21.9 °F 78% 29.81 in 10.0 mi WNW 11.5 mph - N/A   Overcast
4:52 AM 28.9 °F 17.7 °F 21.0 °F 72% 29.81 in 10.0 mi NW 15.0 mph - N/A   Overcast
5:52 AM 28.0 °F 18.6 °F 21.0 °F 75% 29.83 in 10.0 mi WNW 10.4 mph - N/A   Overcast
6:52 AM 27.0 °F 18.7 °F 19.9 °F 75% 29.83 in 10.0 mi WNW 8.1 mph - N/A   Overcast
7:52 AM 26.1 °F 21.9 °F 21.0 °F 81% 29.84 in 10.0 mi West 3.5 mph - N/A   Overcast
8:52 AM 26.1 °F 20.5 °F 21.0 °F 81% 29.85 in 10.0 mi WNW 4.6 mph - N/A   Overcast
9:52 AM 27.0 °F 19.5 °F 21.9 °F 81% 29.85 in 10.0 mi West 6.9 mph - N/A   Overcast
10:52 AM 28.0 °F 20.8 °F 21.9 °F 78% 29.86 in 10.0 mi NW 6.9 mph - N/A   Overcast
11:52 AM 28.9 °F - 21.9 °F 75% 29.84 in 10.0 mi Calm Calm - N/A   Overcast
12:52 PM 28.0 °F 20.0 °F 23.0 °F 81% 29.83 in 10.0 mi SW 8.1 mph - N/A   Mostly Cloudy
1:52 PM 28.0 °F 24.2 °F 21.0 °F 75% 29.81 in 10.0 mi SSW 3.5 mph - N/A   Clear
2:52 PM 27.0 °F 20.5 °F 21.0 °F 78% 29.80 in 10.0 mi South 5.8 mph - N/A   Clear
3:52 PM 27.0 °F 18.0 °F 21.0 °F 78% 29.79 in 10.0 mi South 9.2 mph - N/A   Clear
4:52 PM 24.1 °F 14.4 °F 19.0 °F 81% 29.78 in 10.0 mi SSE 9.2 mph - N/A   Clear
5:52 PM 23.0 °F 13.9 °F 18.0 °F 81% 29.78 in 10.0 mi SSE 8.1 mph - N/A   Clear
6:52 PM 24.1 °F 12.5 °F 21.0 °F 88% 29.76 in 10.0 mi SSE 12.7 mph - N/A   Clear
7:52 PM 24.1 °F 12.5 °F 19.0 °F 81% 29.74 in 10.0 mi SSE 12.7 mph - N/A   Partly Cloudy
8:52 PM 24.1 °F 12.0 °F 19.9 °F 84% 29.73 in 10.0 mi SSE 13.8 mph - N/A   Scattered Clouds
9:52 PM 24.1 °F 12.0 °F 19.9 °F 84% 29.70 in 10.0 mi SSE 13.8 mph - N/A   Clear
10:52 PM 25.0 °F 13.1 °F 19.9 °F 81% 29.68 in 10.0 mi SSE 13.8 mph - N/A   Scattered Clouds
11:52 PM 26.1 °F 16.2 °F 21.9 °F 84% 29.67 in 10.0 mi SSE 10.4 mph - N/A   Overcast